Simultaneous Nadir Overpasses (SNOs) Predictions

Prediction of SNOs between LANDSAT-8 and METOP-A Satellite Orbit:

Table of predicted SNOs for the next 14.0 days since TLE Epoch: 1/10/2015
Index Date (LANDSAT-8) Time (LANDSAT-8) Lat,Lon (LANDSAT-8) SZA (LANDSAT-8 ) Date (METOP-A) Time (METOP-A) Lat,Lon (METOP-A) SZA (METOP-A ) Distance(km) Time Diff (sec)
1 01/11/2015 05:03:09 81.11, 143.62 104.67 01/11/2015 05:02:56 81.11, 143.60 104.66 0.50 13
2 01/11/2015 05:52:35 -81.13, -48.41 75.30 01/11/2015 05:53:35 -81.13, -48.41 75.27 0.47 60
3 01/14/2015 00:37:23 81.12,-149.79 104.20 01/14/2015 00:37:15 81.11,-149.92 104.19 2.36 8
4 01/14/2015 01:26:49 -81.14, 18.20 75.76 01/14/2015 01:27:54 -81.14, 18.07 75.75 2.37 65
5 01/16/2015 20:11:37 81.11, -83.40 103.66 01/16/2015 20:11:34 81.11, -83.50 103.65 1.90 3
6
